Regional Weather Roundup
Issued by NWS

Home | Current Version | Previous Version | Graphics & Text | Print | Product List | Glossary On
Versions: 1 2 3 4 5 6 7 8 9 10 11 12 13 14 15 16 17 18 19 20 21 22 23 24 25 26 27 28 29 30 31 32 33 34 35 36 37 38 39 40 41 42 43 44 45 46 47 48 49 50
000
ASUS45 KSLC 270310
RWRUT

UTAH REGIONAL WEATHER ROUNDUP
NATIONAL WEATHER SERVICE SALT LAKE CITY UT
800 PM MST THU FEB 26 2015

UTZ001>011-023>025-270400-

NORTHERN UTAH

CITY           SKY/WX    TMP DP  RH WIND       PRES   REMARKS
BRIGHAM CITY   PTCLDY    34  29  81 CALM      29.92S
HILL AFB       NOT AVBL
LOGAN          CLEAR     29  24  82 E6        29.92R WCI  23
OGDEN          MOCLDY    32  30  92 CALM      29.91S
PROVO AIRPORT  MOCLDY    34  28  80 W9        29.92S WCI  26
SALT LAKE CITY MOCLDY    36  31  82 NW8       29.91S WCI  30
VERNAL         MOCLDY    32  18  56 NE14      29.87R WCI  22
WENDOVER       CLOUDY    41  25  52 W8        29.94S
HEBER CITY     CLOUDY    32  21  64 CALM      29.86S
WEST JORDAN    MOCLDY    34  30  86 CALM      29.92S

$$

UTZ012>022-026-027-270400-

SOUTHERN/CENTRAL UTAH

CITY           SKY/WX    TMP DP  RH WIND       PRES   REMARKS
BLANDING       MOCLDY    26  26 100 NE3       29.94S
BRYCE CANYON   CLOUDY    28  19  69 NW12      29.87R WCI  18
CEDAR CITY     CLOUDY    35  27  72 N12       29.89R WCI  27
DELTA          CLOUDY    37  25  63 N6        29.91S WCI  32
HANKSVILLE     CLEAR     30  28  93 CALM      29.89S
MILFORD        CLOUDY    37  28  70 N3        29.91R
MOAB/CYNLANDS  MOCLDY    36  26  67 SW6       29.84F WCI  31
PRICE          CLOUDY    31  28  89 CALM      29.84F
ST GEORGE      PTCLDY    54  27  35 NE20G26   29.83R
KANAB            N/A     39  27  60 NW9       29.88R WCI  33

$$

REGIONAL REPORTS     COLORADO/ARIZONA

CITY           SKY/WX    TMP DP  RH WIND       PRES   REMARKS
CRAIG, CO      LGT SNOW  26  23  88 E5        29.87S FOG     WCI  20
GRAND JUNCTION CLOUDY    37  24  59 S10       29.85S WCI  30
RIFLE          CLOUDY    33  24  69 SE3       29.84F
MONTROSE       CLOUDY    30  21  69 SE3       29.87S
CORTEZ         LGT SNOW  30  30 100 W3        29.84F VSB 1
PAGE, AZ       PTCLDY    44  30  57 E5        29.84R
GRAND CANYON   CLEAR     29  22  75 CALM      29.87R
KINGMAN        CLEAR     43  28  55 SE6       29.83S
FLAGSTAFF      MOCLDY    38  19  46 SW7       29.88R WCI  33

$$

REGIONAL REPORTS    NEVADA/IDAHO/WYOMING

CITY           SKY/WX    TMP DP  RH WIND       PRES   REMARKS
LAS VEGAS, NV  CLEAR     63  21  20 S6        29.73S
ELY            CLOUDY    33  18  53 N8        29.93R WCI  26
ELKO           CLOUDY    36  27  69 SE3       29.95S
POCATELLO, ID  CLOUDY    37  19  48 SW7       29.92F WCI  32
BURLEY         CLOUDY    35  30  82 SW8       29.91S WCI  29
EVANSTON, WY   LGT SNOW  24  21  88 N3        29.87S FOG
ROCK SPRINGS   CLOUDY     9   5  84 NE20      29.94S WCI -10

$$



USA.gov is the U.S. government's official web portal to all federal, state and local government web resources and services.